This is the latest recevied weather packets stored in our database for station/object KJ6BBX. If no packets are shown the sender has not sent any weather packets the latest 10 day(s).
| Time | Temp. | Humidity | Pressure | Rain* | Wind** | Luminosity | Snow |
|---|---|---|---|---|---|---|---|
| 1777624514 | 13.33° C | 91% | 1006 hPa | 0 mm | - | 0 W/m² | - |
| 1777623614 | 13.33° C | 90% | 1005.8 hPa | 0 mm | - | 0 W/m² | - |
| 1777622714 | 13.89° C | 89% | 1005.8 hPa | 0 mm | - | 0 W/m² | - |
| 1777621814 | 13.89° C | 89% | 1005.8 hPa | 0 mm | - | 0 W/m² | - |
| 1777620914 | 13.89° C | 88% | 1005.6 hPa | 0 mm | - | 0 W/m² | - |
| 1777620014 | 13.89° C | 88% | 1005.6 hPa | 0 mm | - | 0 W/m² | - |
| 1777619114 | 13.33° C | 87% | 1005.7 hPa | 0 mm | - | 0 W/m² | - |
| 1777618214 | 13.89° C | 87% | 1005.7 hPa | 0 mm | - | 0 W/m² | - |
| 1777617314 | 13.89° C | 86% | 1005.4 hPa | 0 mm | - | 0 W/m² | - |
| 1777616416 | 13.89° C | 85% | 1005.4 hPa | 0 mm | - | 0 W/m² | - |
| 1777615516 | 14.44° C | 85% | 1005.3 hPa | 0 mm | - | 0 W/m² | - |
| 1777614614 | 14.44° C | 84% | 1005.4 hPa | 0 mm | - | 0 W/m² | - |
| 1777613715 | 15° C | 84% | 1005.4 hPa | 0 mm | - | 0 W/m² | - |
| 1777612813 | 15° C | 83% | 1005.4 hPa | 0 mm | - | 0 W/m² | - |
| 1777611915 | 15° C | 83% | 1005.2 hPa | 0 mm | - | 0 W/m² | - |
| 1777611014 | 15° C | 83% | 1005.3 hPa | 0 mm | - | 0 W/m² | - |
| 1777610114 | 15° C | 83% | 1004.9 hPa | 0 mm | - | 0 W/m² | - |
| 1777609214 | 15° C | 81% | 1004.9 hPa | 0 mm | - | 0 W/m² | - |
| 1777608314 | 15.56° C | 79% | 1004.8 hPa | 0 mm | - | 0 W/m² | - |
| 1777607415 | 15.56° C | 79% | 1004.6 hPa | 0 mm | - | 0 W/m² | - |
| 1777606514 | 16.11° C | 78% | 1004.4 hPa | 0 mm | - | 0 W/m² | - |
| 1777604715 | 16.67° C | 76% | 1003.9 hPa | 0 mm | - | 0 W/m² | - |
| 1777603815 | 17.22° C | 75% | 1003.7 hPa | 0 mm | - | 0 W/m² | - |
| 1777602915 | 17.78° C | 75% | 1003.5 hPa | 0 mm | - | 0 W/m² | - |
| 1777602014 | 18.33° C | 75% | 1003.3 hPa | 0 mm | - | 6 W/m² | - |
* Rain since midnight (hover to see other rain measurements)
** Current wind speed in m/s (hover to see current wind gust speed)